Weather in Yangelskoye

Russia / Republic of Bashkortostan     53°15′19″N   58°47′35″E
temp.,
°C
wind,
m/s
gust,
m/s
humid.,
%
clouds,
%
prec.,
mm/h
press.,
hPa
HPBL,
m
28 february, sun
sun2823:00−12ene1296100 1.3 100746
02:00−14nne239799 0.2 100631
05:00−14nne3496100 0.4 100577
08:00−13n4696100 1.0 1004190
11:00−11nne4695100 1.9 1003264
14:00−10nne4694100 0.3 1002323
17:00−9nne4594100 0.9 1002334
20:00−11n3596100 0.3 1005151
1 march, mon
mon123:00−13n339690 0.4 100867
02:00−16n239779 0.1 101020
05:00−18n119885 0.1 101220
08:00−17e119790 0.1 101420
11:00−14se119384 0.2 1016154
14:00−12se119199 0.0 1016209
17:00−11sse239499 0.1 1016220
20:00−12s229696 0.1 101732
2 march, tue
tue223:00−14wsw119298 0.2 101820
02:00−15w229295 0.0 101720
05:00−18w229189 0.1 101720
08:00−21w22930 0.0 101720
11:00−16w36870 0.0 1016214
14:00−10sw46811 0.0 1014422
17:00−10sw498533 0.0 1013368
20:00−12ssw478998 0.0 1012149
3 march, wed
wed323:00−13ssw479199 0.0 1011187
02:00−13s5892100 0.0 1008225
05:00−11s51191100 0.0 1006317
08:00−8s51293100 0.0 1004403
11:00−3ssw61187100 0.1 1002909
14:00−1ssw61086100 0.1 1000932
17:00−2ssw5987100 0.2 999353
20:00−5wsw3489100 0.1 100079
4 march, thu
thu423:00−6wsw3589100 0.1 1001104
02:00−9w4887100 0.0 1002132
05:00−11w4787100 0.0 1004123
08:00−12w4887100 0.0 1005151
11:00−7wnw41082100 0.0 1007625
14:00−5wnw477823 0.0 10081084
17:00−6w5117847 0.1 1010465
20:00−12w47850 0.0 1012104